Temperature
23 22 22 22 24 26 27 28 28 28 28 27 27 26 26 25 24 22 21 21 20 20 19 19 19 19 19 19 19 19 19 19 19 19 19 19 19 18 18 18 18 18 18 18 18 18 18 18 18
23 22 22 24 25 27 27 28 28 28 28 27 27 26 25 24 23 22 21 21 20 20 19 19 19 19 19 19 19 19 19 19 19 19 19 19 19 18 18 18 18 18 18 18 18 18 18 18 18
23 23 25 26 28 28 28 29 28 29 28 27 27 26 25 23 23 22 21 21 20 20 20 20 19 19 19 19 19 19 19 18 18 19 19 19 18 18 18 18 18 18 18 18 18 18 18 18 18
23 25 26 28 29 30 29 29 29 29 28 28 27 25 24 23 22 22 21 21 21 20 20 20 19 19 19 19 19 19 19 18 18 18 18 18 18 18 18 18 18 18 18 18 18 18 18 18 18
25 27 28 29 30 30 30 30 30 29 29 27 26 25 23 22 22 22 22 21 21 20 20 20 20 19 19 19 19 19 19 19 19 18 18 18 18 18 18 18 18 18 18 18 18 18 18 18 18
26 28 28 29 30 31 31 30 30 29 29 27 26 25 23 22 22 22 22 21 21 20 20 20 20 20 19 19 19 19 19 19 19 19 18 18 18 18 18 18 18 18 18 18 18 18 18 18 18
28 29 30 30 30 30 31 30 30 29 29 28 27 25 23 23 22 22 22 21 21 21 20 20 20 20 20 19 19 19 19 19 19 19 19 18 18 18 18 18 18 18 18 18 18 18 18 18 18
30 30 30 31 30 30 31 30 30 29 28 28 27 25 23 23 22 22 22 21 21 21 20 20 20 20 20 19 19 19 19 19 19 19 19 18 18 18 18 18 18 18 18 18 18 18 18 18 18
31 30 30 31 31 30 31 30 30 29 28 27 26 25 24 23 23 22 22 22 21 21 20 20 20 20 19 19 19 19 19 19 19 19 18 18 18 18 18 18 18 18 18 18 18 18 18 18 18
32 30 31 33 32 32 31 31 30 29 28 27 26 25 24 23 23 23 22 22 21 21 21 20 20 20 20 19 19 19 19 19 19 18 18 18 18 18 18 18 18 18 18 18 18 18 18 18 18
34 33 33 33 33 32 31 31 30 30 28 27 26 25 24 24 23 23 23 22 22 21 21 20 20 20 20 20 20 19 19 19 19 18 18 19 18 18 18 18 18 18 18 18 18 18 18 18 18
34 34 34 33 32 32 32 31 31 30 28 27 26 25 25 24 24 23 23 22 22 21 21 20 20 20 20 20 19 19 19 19 19 19 19 19 18 18 18 18 18 18 18 18 18 18 18 18 18
34 34 33 33 33 32 32 31 30 29 28 27 26 26 25 24 24 23 23 22 21 21 21 20 20 20 20 20 19 19 19 19 19 19 19 19 18 18 18 18 18 18 18 18 18 18 18 18 18
34 34 34 33 33 32 32 32 31 29 28 27 26 26 25 25 24 23 23 22 21 21 20 20 20 20 19 19 19 19 19 19 19 19 19 19 18 18 18 18 18 18 18 18 18 18 18 18 18
34 34 33 34 33 33 32 31 31 29 29 28 27 26 26 25 24 23 23 22 21 21 20 20 20 20 19 19 19 19 19 19 19 19 19 19 18 18 18 18 18 18 18 18 18 18 18 18 18
34 33 31 33 33 33 32 29 30 29 29 28 27 26 26 25 25 24 23 22 21 21 20 20 20 20 20 19 19 19 19 19 19 19 19 19 18 18 18 18 18 18 18 18 18 18 18 18 18
32 32 31 32 33 33 32 30 30 30 29 28 28 27 26 25 25 24 23 22 21 21 20 20 20 20 20 19 19 19 19 19 19 19 19 19 18 18 18 18 18 18 18 18 18 18 18 18 18
31 32 32 32 33 33 32 31 31 30 30 29 28 28 27 26 25 24 23 22 21 21 20 20 20 20 20 19 19 19 19 19 19 19 19 19 19 18 19 18 19 18 18 18 18 18 18 18 18
33 33 33 33 34 34 33 32 31 31 30 30 29 28 27 26 25 24 24 23 22 21 20 20 20 20 20 20 20 19 19 19 19 19 19 19 18 18 19 19 18 18 18 18 18 18 18 18 18
34 33 33 34 35 34 33 31 31 31 31 30 30 29 28 27 26 25 24 23 22 21 21 20 20 20 20 20 20 20 19 19 19 19 19 19 19 19 19 19 18 18 18 18 18 18 18 18 18
34 34 33 34 34 34 33 31 31 31 31 31 30 29 28 27 26 25 24 23 22 21 21 21 20 20 20 20 20 20 20 19 19 19 19 19 19 19 19 19 18 18 18 18 18 18 18 18 18
33 35 35 34 33 32 32 30 30 30 30 31 31 30 29 28 27 25 24 23 23 22 21 21 20 20 20 20 20 20 20 19 19 19 19 19 19 18 19 18 18 18 18 18 18 18 18 18 18
34 35 35 34 33 32 33 31 30 31 30 31 31 31 30 29 27 26 25 24 23 22 22 21 21 20 20 20 20 20 20 19 19 19 19 19 19 18 19 18 18 18 18 18 18 18 18 18 18
35 35 34 34 33 31 32 32 30 30 31 31 31 31 30 29 28 27 25 24 24 23 22 21 21 20 20 20 20 20 20 19 19 19 19 19 19 18 18 18 18 18 18 18 18 18 18 18 18
34 32 31 30 30 30 32 32 31 31 32 32 31 31 30 30 28 27 26 24 24 23 22 22 21 20 20 20 20 20 20 19 19 19 19 19 19 18 18 18 18 18 18 18 18 18 18 18 18
33 33 30 29 30 31 32 31 32 33 33 32 32 31 30 30 29 28 26 25 24 23 23 22 21 21 20 20 20 20 20 19 19 19 19 19 19 19 19 18 18 18 18 18 18 18 18 18 18
33 33 33 32 31 30 31 31 32 33 33 33 32 31 31 30 29 28 27 25 24 24 23 22 21 21 20 20 20 20 20 20 19 19 19 19 19 19 19 18 18 18 18 18 18 17 17 17 17
34 34 33 32 30 30 30 30 30 31 32 33 32 31 30 30 29 28 27 26 25 24 23 22 21 21 20 20 20 20 20 19 19 19 19 19 19 19 18 18 18 18 18 18 18 17 17 17 17
33 33 32 32 32 31 29 29 31 31 32 32 32 31 30 30 29 28 27 26 25 24 23 22 21 21 20 20 20 20 20 19 19 19 19 19 19 18 18 18 18 18 18 17 17 17 17 17 17
34 33 33 31 31 31 31 30 32 32 32 31 31 30 30 29 29 28 27 26 25 24 23 22 21 21 20 20 20 19 19 19 19 19 19 19 18 18 18 18 18 18 17 17 17 17 17 17 16
Wind_Speed
11 11 9 5 4 1 11 12 12 12 11 10 11 12 16 15 11 9 8 9 12 13 14 14 13 12 12 13 14 15 15 15 15 15 15 15 15 16 16 16 16 16 16 15 15 14 14 14 14
10 11 7 4 1 7 11 12 12 11 10 11 13 15 17 15 13 10 9 8 11 13 14 13 12 12 12 13 14 15 15 15 15 15 15 16 16 16 15 15 15 15 14 14 14 14 14 13 13
12 13 6 2 5 11 12 11 11 11 10 11 13 14 11 10 11 9 9 10 12 14 14 13 13 13 12 13 14 15 15 15 15 15 15 16 16 15 15 15 14 14 13 13 13 13 12 12 12
6 6 4 1 11 14 13 10 10 10 11 11 12 11 12 12 10 11 10 11 13 14 15 14 13 13 12 12 13 14 15 15 15 15 14 14 14 14 14 14 13 12 12 12 12 12 12 11 10
7 4 1 6 14 14 12 10 10 11 11 14 15 15 13 13 12 12 10 10 12 13 14 14 14 14 13 13 13 13 13 14 14 13 13 13 13 13 13 13 12 12 11 11 12 12 11 11 9
5 3 0 8 14 13 12 11 11 12 13 14 16 15 11 11 11 10 10 9 11 13 14 14 14 14 13 13 13 13 13 13 13 12 12 12 12 12 12 12 12 11 11 11 12 12 11 10 9
5 4 2 10 13 12 11 11 12 12 12 11 13 13 10 9 10 10 10 10 11 13 13 12 13 13 13 12 12 12 12 12 12 11 11 11 11 11 11 11 11 10 10 11 11 11 10 10 8
3 2 4 10 12 12 11 11 12 12 11 10 9 10 10 11 10 10 10 10 10 10 11 10 11 12 13 12 12 11 11 12 11 10 10 11 11 11 11 11 10 10 10 10 9 9 9 9 8
2 1 5 9 10 11 11 12 11 11 12 12 13 15 14 14 13 11 10 10 9 9 8 8 9 10 11 11 12 11 11 11 10 10 10 10 9 9 9 10 10 10 10 9 8 8 9 8 8
2 3 7 10 10 10 11 10 10 10 13 15 15 16 15 13 11 10 10 10 9 9 8 6 7 7 7 8 9 8 8 9 7 7 9 7 6 8 9 11 11 10 9 8 7 8 8 8 7
4 6 9 10 10 10 10 10 9 11 11 13 15 15 13 12 10 10 10 10 9 9 8 7 7 6 5 5 5 4 5 7 6 6 6 5 5 6 7 7 8 8 9 7 7 8 7 6 4
5 6 8 9 9 9 9 9 10 12 13 14 15 15 13 11 10 10 10 10 9 8 8 7 7 6 5 4 3 3 3 3 4 5 5 4 2 2 3 3 5 6 6 5 5 4 3 3 4
3 6 7 7 8 8 9 10 12 13 15 15 15 13 13 12 10 10 10 10 9 8 8 7 7 6 4 3 1 3 3 3 4 4 4 4 3 2 2 2 2 3 4 5 3 3 2 2 2
1 4 5 6 7 7 8 10 11 13 15 15 14 12 12 11 11 11 10 10 9 8 7 7 7 6 4 2 1 1 2 2 3 3 4 3 3 2 2 2 1 2 3 3 3 3 3 2 1
2 3 3 4 6 8 8 7 10 13 14 14 13 12 11 10 10 11 10 10 10 8 7 6 7 6 4 2 1 2 2 2 2 3 4 3 4 3 2 2 2 2 3 3 3 2 2 2 2
4 4 3 4 4 6 6 6 9 13 12 13 13 13 11 9 10 11 11 10 10 8 6 5 6 7 4 2 1 1 2 3 3 3 4 4 4 4 2 2 2 3 3 2 2 2 1 1 1
8 6 4 4 6 6 5 9 11 12 13 11 12 13 12 11 11 11 11 11 10 8 6 5 5 5 4 4 2 1 2 2 2 3 3 4 3 3 3 2 2 3 2 2 2 2 2 1 1
6 5 3 4 6 6 6 9 13 13 13 13 12 13 13 12 11 11 11 12 10 9 7 6 5 4 4 3 2 2 2 1 2 3 3 3 3 2 2 3 2 2 2 1 1 1 1 1 1
8 7 3 5 8 7 7 11 13 13 13 13 13 13 13 13 13 13 11 12 12 10 8 6 6 4 3 2 2 2 2 1 2 3 4 3 2 2 1 2 2 1 2 1 1 1 1 2 1
10 7 6 6 5 5 4 7 10 12 13 14 14 14 14 15 14 14 13 12 12 10 9 8 7 6 4 3 2 2 2 2 3 3 3 3 3 2 2 2 1 2 2 2 1 1 0 1 1
10 9 7 6 5 5 5 6 9 11 11 13 14 14 15 16 16 15 13 12 12 11 10 8 7 6 4 4 3 2 2 1 3 3 3 2 3 2 2 2 2 2 2 2 2 1 1 1 1
11 10 8 8 8 6 7 5 7 10 11 12 13 14 15 15 16 15 14 13 13 12 11 8 8 6 5 4 3 3 3 2 3 2 3 3 3 3 2 2 2 1 2 2 2 2 1 1 2
12 11 10 10 10 9 9 6 6 10 12 13 12 13 15 16 17 17 16 14 13 13 12 10 8 7 5 4 3 2 2 2 2 3 4 3 3 3 3 3 2 1 1 1 1 1 0 1 1
12 11 11 10 10 10 11 9 5 8 10 11 12 12 14 16 16 16 16 14 12 12 12 11 10 8 7 6 5 4 3 2 3 3 4 3 3 3 3 4 3 2 1 1 1 1 1 1 1
12 10 8 9 9 10 10 8 5 8 8 10 11 11 12 15 15 16 16 16 13 12 12 12 11 9 8 7 5 4 3 3 3 3 3 3 3 3 3 3 3 2 1 2 1 2 1 1 0
13 13 11 10 9 8 7 5 3 4 7 10 12 13 12 13 14 16 17 16 14 13 12 12 12 10 9 7 6 5 4 3 3 2 2 3 2 2 3 3 3 3 2 2 1 2 2 2 1
14 14 15 12 12 9 5 4 4 5 5 8 10 11 13 12 13 14 16 16 15 13 12 12 12 10 9 8 7 5 5 3 2 2 3 2 2 2 3 4 4 3 2 1 1 1 1 2 1
15 14 10 10 11 10 6 5 5 7 7 8 9 11 10 12 13 13 14 15 15 13 11 11 11 10 8 8 7 7 5 4 3 2 2 1 1 1 2 3 3 3 3 2 1 1 1 1 1
14 14 11 10 11 10 7 3 4 7 7 6 7 9 10 11 12 12 12 12 12 13 13 12 11 10 8 7 6 5 5 4 4 2 2 2 2 2 2 2 2 2 2 2 1 1 1 1 1
15 15 14 10 9 10 9 4 4 6 6 6 6 8 7 7 10 10 11 11 11 12 12 11 11 10 9 7 6 5 5 4 4 3 2 2 2 2 3 3 2 2 2 2 2 1 1 1 1
Wind_Direction
187 202 211 234 247 131 65 68 73 69 66 65 67 69 61 54 66 87 100 97 100 101 99 94 86 82 79 82 91 94 93 90 88 89 94 96 99 102 103 104 107 109 111 114 116 118 121 122 123
206 213 221 238 264 75 73 70 71 74 81 81 74 75 72 66 76 92 99 105 104 102 98 96 94 89 85 85 93 96 95 93 91 91 95 98 102 104 105 106 106 107 109 112 116 117 120 124 127
242 242 245 231 69 72 75 80 85 89 88 87 81 69 69 77 80 96 109 113 102 100 101 104 103 98 94 90 92 94 95 95 93 94 98 100 103 105 106 106 108 109 112 114 118 120 122 125 130
241 241 236 121 75 74 81 87 89 92 89 87 89 80 75 81 91 104 112 111 108 111 110 111 109 105 101 98 97 98 97 97 96 97 100 102 105 107 108 109 111 113 115 119 123 125 125 127 133
251 265 231 80 80 81 83 92 96 88 84 87 90 94 89 88 99 108 108 107 109 110 113 117 116 113 110 107 104 103 102 102 103 103 103 104 106 107 109 110 111 112 114 120 127 128 128 128 131
256 246 326 83 83 79 81 85 86 89 90 96 102 102 98 107 108 108 106 107 111 115 118 120 122 120 117 115 115 112 110 111 111 110 109 109 110 110 111 112 113 112 114 121 127 129 130 131 135
259 301 53 87 89 81 79 81 84 88 90 92 106 107 111 115 113 108 102 101 104 115 122 132 131 128 124 121 119 117 120 121 121 121 121 120 119 118 116 114 117 118 120 124 129 133 136 138 147
239 293 51 81 86 85 87 87 88 92 91 96 101 109 123 127 125 113 107 100 96 104 115 129 132 132 133 128 128 127 131 132 133 136 137 136 134 131 129 123 125 126 127 131 137 145 149 151 157
235 20 58 78 87 96 98 95 93 96 98 88 88 108 125 131 128 122 112 106 104 102 106 118 127 132 132 134 137 143 144 148 148 151 156 157 150 144 143 131 135 135 136 142 149 157 163 168 176
163 94 78 82 91 102 101 100 109 107 100 100 100 110 124 132 133 128 121 118 115 112 107 106 106 114 122 121 136 149 146 149 158 152 159 172 153 144 137 144 147 146 149 153 162 170 173 186 191
94 78 83 87 92 101 108 110 111 111 109 115 121 127 131 132 132 128 123 120 116 112 108 104 97 92 91 108 132 137 133 141 143 141 143 142 141 143 144 149 156 163 167 173 172 189 197 191 188
77 74 82 91 96 100 105 107 98 99 110 120 127 133 133 135 135 129 122 119 116 113 109 98 92 82 72 82 109 131 127 129 128 144 157 147 147 137 142 154 163 171 174 169 172 182 184 179 186
85 98 99 110 112 108 108 106 103 108 117 123 129 133 135 137 134 123 119 119 118 115 109 102 96 84 72 56 64 114 111 125 132 141 134 137 139 133 142 132 165 168 158 169 162 159 161 171 190
89 108 117 121 117 119 116 118 119 124 129 132 138 139 139 137 135 130 132 128 123 120 117 116 116 110 105 92 41 77 107 126 128 131 129 132 138 150 152 148 163 160 163 141 142 161 160 171 175
201 155 146 150 151 140 129 121 126 136 140 145 145 144 141 141 135 140 143 139 134 128 124 130 131 124 124 129 161 131 138 131 121 126 124 136 145 153 158 153 169 149 145 145 161 172 166 170 175
239 216 200 195 193 169 159 148 145 147 150 153 154 151 150 149 149 147 147 141 136 134 132 146 135 129 130 124 87 54 72 80 96 130 141 145 145 172 171 166 154 158 166 165 168 166 142 144 157
239 221 196 204 225 185 168 147 154 162 158 161 161 158 158 160 158 152 150 143 139 137 142 139 116 129 142 144 143 92 67 71 107 132 139 139 157 179 173 148 138 170 156 161 175 125 135 167 159
242 248 196 196 216 200 172 152 161 171 168 170 172 164 164 166 164 157 154 146 143 142 144 142 134 131 135 129 135 103 87 103 116 113 120 134 152 157 148 146 157 157 138 142 120 130 162 190 208
239 248 230 209 217 220 182 159 168 174 179 177 175 170 172 170 164 161 161 153 150 149 152 150 147 143 149 144 147 139 146 144 110 114 117 130 123 114 110 99 133 144 131 133 134 142 194 200 172
239 242 241 224 208 233 194 166 175 181 190 185 179 176 176 170 164 164 166 162 160 157 158 157 156 159 169 152 159 160 154 152 115 97 109 114 103 111 129 114 157 127 142 146 139 105 289 256 170
248 249 245 246 243 245 243 209 180 191 200 188 182 180 179 175 168 168 170 167 164 164 167 168 163 161 174 166 173 151 127 125 109 117 131 123 124 117 75 117 105 113 139 142 173 164 206 244 266
251 253 251 248 248 242 233 231 192 190 198 192 188 184 181 176 171 170 171 170 170 171 169 160 158 162 168 170 183 172 163 159 147 145 141 152 148 138 122 111 103 99 110 129 200 168 236 235 264
251 259 265 262 260 260 247 244 190 190 201 192 190 190 183 177 175 173 173 172 175 174 170 165 158 162 168 177 180 185 169 167 153 150 145 161 156 148 138 129 129 124 118 142 195 114 233 278 289
254 260 267 268 262 256 256 255 199 194 207 189 187 190 182 176 175 172 170 167 173 174 169 165 160 165 170 177 177 181 191 179 157 155 158 173 164 160 161 150 149 142 152 155 143 184 147 68 346
242 245 249 249 246 249 247 243 198 180 189 180 178 183 182 172 172 170 168 168 172 172 171 164 160 168 175 180 176 178 193 198 178 186 181 183 168 165 165 165 152 155 168 158 164 174 160 136 150
235 238 242 250 252 252 246 244 179 161 168 167 166 173 180 172 173 171 170 169 172 175 172 165 162 170 178 180 177 178 187 201 192 204 203 184 182 164 158 158 157 156 180 184 182 171 168 157 223
239 238 245 256 267 267 241 218 198 166 170 161 155 158 166 169 167 168 168 169 173 175 172 167 162 171 180 180 174 178 176 194 199 193 206 196 171 169 143 157 157 158 169 174 185 186 173 160 206
245 248 248 252 259 264 253 242 220 180 173 159 151 151 161 163 165 165 167 169 170 171 166 162 160 167 173 174 180 178 175 182 175 184 192 160 140 132 139 146 149 153 154 164 214 200 193 204 208
232 242 247 255 263 266 255 242 209 194 170 154 144 146 155 160 162 163 164 163 164 167 166 166 162 165 172 173 174 169 170 181 173 182 187 148 143 149 153 139 145 159 157 164 198 224 198 228 246
238 239 241 246 257 271 273 259 163 184 147 141 136 127 126 144 152 154 155 156 162 164 164 162 164 169 169 167 166 167 169 167 171 176 173 152 158 162 157 155 161 182 166 167 181 220 228 234 242
Height
1477 1478 1478 1481 1481 1478 1477 1473 1471 1474 1476 1477 1478 1480 1484 1487 1492 1504 1505 1504 1504 1504 1503 1503 1502 1502 1501 1500 1500 1501 1503 1503 1503 1503 1504 1505 1507 1508 1511 1514 1516 1518 1520 1522 1525 1527 1529 1531 1533
1477 1478 1481 1480 1479 1484 1482 1475 1475 1476 1478 1479 1481 1484 1488 1493 1497 1502 1504 1505 1506 1506 1505 1505 1505 1504 1504 1503 1504 1504 1506 1506 1506 1506 1507 1508 1510 1512 1514 1516 1518 1520 1522 1524 1526 1528 1530 1532 1534
1478 1480 1481 1476 1474 1479 1481 1474 1475 1476 1479 1480 1484 1488 1493 1498 1501 1503 1505 1506 1507 1507 1507 1507 1507 1507 1507 1507 1507 1508 1509 1509 1509 1509 1510 1512 1513 1515 1517 1519 1521 1522 1524 1526 1528 1530 1532 1534 1536
1480 1480 1477 1474 1474 1470 1472 1473 1474 1476 1479 1482 1485 1492 1498 1501 1503 1505 1506 1507 1508 1508 1508 1509 1509 1509 1509 1510 1510 1511 1512 1512 1513 1513 1514 1516 1517 1518 1520 1521 1523 1524 1525 1527 1529 1531 1533 1535 1537
1481 1479 1475 1473 1471 1469 1470 1472 1474 1477 1480 1484 1489 1495 1501 1505 1506 1507 1508 1509 1509 1510 1510 1511 1511 1512 1512 1512 1513 1514 1515 1515 1516 1517 1518 1519 1520 1521 1523 1524 1525 1525 1526 1527 1529 1531 1534 1536 1538
1479 1474 1478 1477 1473 1470 1470 1473 1476 1479 1482 1487 1491 1497 1504 1507 1508 1509 1510 1511 1511 1511 1512 1513 1513 1514 1515 1515 1516 1517 1517 1518 1519 1520 1521 1522 1523 1524 1525 1526 1526 1527 1527 1528 1530 1533 1535 1537 1540
1477 1474 1473 1472 1474 1474 1473 1475 1477 1481 1484 1488 1492 1498 1505 1508 1509 1511 1511 1512 1513 1514 1514 1515 1516 1516 1517 1518 1518 1519 1520 1521 1521 1522 1524 1525 1526 1527 1527 1528 1529 1530 1530 1531 1533 1535 1537 1539 1541
1472 1472 1471 1470 1474 1477 1475 1477 1480 1483 1487 1490 1493 1498 1505 1509 1511 1512 1513 1514 1515 1516 1517 1517 1518 1519 1519 1520 1521 1522 1522 1523 1524 1525 1526 1527 1528 1529 1530 1531 1531 1532 1533 1534 1536 1537 1539 1541 1542
1469 1473 1476 1471 1473 1475 1476 1479 1483 1485 1488 1492 1495 1499 1505 1509 1511 1513 1514 1516 1517 1518 1519 1520 1521 1521 1522 1522 1523 1524 1524 1525 1526 1527 1528 1529 1530 1531 1532 1533 1534 1534 1535 1536 1538 1539 1541 1542 1544
1467 1474 1472 1466 1468 1472 1476 1479 1483 1486 1490 1495 1499 1503 1507 1510 1512 1513 1515 1517 1518 1520 1521 1522 1523 1524 1524 1525 1525 1526 1527 1527 1528 1529 1530 1531 1532 1533 1534 1535 1535 1536 1537 1538 1539 1540 1542 1543 1545
1463 1466 1465 1466 1469 1472 1476 1479 1482 1485 1491 1496 1500 1504 1508 1510 1512 1514 1516 1518 1519 1521 1522 1523 1524 1525 1526 1526 1527 1528 1529 1529 1529 1530 1531 1532 1534 1535 1535 1536 1536 1537 1538 1539 1540 1541 1543 1544 1545
1464 1465 1465 1468 1471 1473 1475 1479 1482 1486 1492 1497 1501 1504 1508 1511 1513 1515 1517 1519 1521 1522 1523 1524 1525 1526 1526 1527 1528 1529 1530 1530 1531 1531 1532 1533 1534 1535 1536 1537 1538 1538 1539 1540 1542 1542 1544 1545 1546
1465 1465 1468 1470 1471 1474 1476 1479 1484 1489 1494 1498 1502 1505 1508 1511 1513 1516 1518 1520 1522 1523 1524 1525 1526 1526 1527 1528 1529 1530 1531 1531 1532 1532 1533 1534 1535 1536 1536 1537 1538 1539 1540 1541 1542 1543 1544 1544 1545
1467 1466 1467 1469 1472 1474 1477 1480 1485 1490 1494 1499 1502 1505 1508 1510 1513 1516 1519 1520 1522 1524 1525 1526 1526 1527 1528 1528 1529 1530 1531 1532 1532 1532 1532 1533 1534 1535 1536 1537 1539 1540 1541 1542 1542 1543 1544 1544 1545
1466 1468 1470 1469 1470 1473 1477 1483 1485 1490 1494 1498 1501 1505 1507 1510 1513 1516 1518 1521 1522 1524 1525 1526 1527 1528 1528 1529 1530 1531 1531 1531 1531 1531 1532 1533 1534 1535 1536 1537 1538 1539 1540 1542 1542 1543 1544 1544 1545
1467 1471 1478 1472 1470 1471 1478 1491 1485 1490 1493 1496 1500 1504 1507 1510 1513 1515 1518 1520 1522 1524 1525 1526 1528 1528 1529 1530 1531 1531 1531 1531 1530 1530 1531 1533 1534 1535 1536 1537 1538 1539 1540 1541 1542 1543 1544 1544 1545
1471 1479 1480 1474 1467 1468 1474 1484 1485 1487 1492 1495 1498 1502 1506 1510 1512 1515 1517 1519 1521 1523 1525 1526 1528 1528 1529 1530 1531 1531 1531 1531 1530 1531 1532 1533 1534 1535 1536 1537 1538 1539 1540 1541 1542 1542 1543 1544 1544
1481 1477 1476 1476 1466 1465 1471 1478 1481 1484 1488 1492 1496 1499 1503 1507 1511 1514 1516 1518 1521 1522 1524 1526 1527 1528 1529 1530 1531 1531 1532 1531 1532 1532 1532 1533 1535 1535 1536 1537 1538 1539 1540 1541 1541 1542 1543 1543 1544
1466 1470 1473 1470 1462 1463 1468 1474 1477 1480 1484 1488 1492 1496 1500 1504 1508 1512 1515 1517 1520 1522 1524 1525 1527 1528 1529 1530 1531 1531 1532 1532 1533 1533 1533 1534 1535 1536 1536 1537 1538 1539 1540 1540 1541 1542 1542 1543 1544
1462 1468 1469 1463 1457 1460 1466 1472 1473 1476 1479 1483 1487 1492 1496 1501 1506 1510 1513 1516 1518 1520 1522 1524 1526 1527 1528 1529 1531 1532 1532 1533 1533 1533 1534 1534 1535 1536 1537 1537 1538 1538 1539 1540 1540 1541 1542 1543 1543
1460 1463 1465 1464 1460 1460 1467 1475 1474 1473 1476 1479 1483 1488 1492 1497 1502 1506 1510 1513 1516 1519 1520 1523 1524 1526 1527 1529 1530 1532 1532 1533 1534 1534 1534 1534 1535 1536 1536 1537 1537 1538 1538 1539 1540 1540 1541 1542 1543
1463 1454 1455 1459 1466 1471 1469 1488 1477 1472 1475 1476 1479 1484 1488 1493 1498 1503 1507 1511 1514 1516 1519 1521 1523 1524 1526 1528 1529 1530 1531 1532 1533 1533 1534 1534 1535 1535 1536 1536 1537 1537 1538 1538 1539 1539 1540 1541 1541
1454 1449 1452 1456 1462 1469 1467 1478 1479 1469 1473 1471 1474 1478 1483 1489 1494 1499 1504 1508 1512 1515 1517 1519 1521 1523 1525 1526 1528 1529 1531 1532 1533 1533 1534 1534 1535 1535 1535 1536 1536 1536 1537 1538 1538 1539 1539 1540 1540
1448 1452 1455 1457 1463 1483 1471 1476 1482 1470 1466 1466 1469 1474 1479 1485 1490 1495 1500 1505 1509 1513 1515 1517 1519 1521 1523 1525 1526 1528 1530 1531 1532 1533 1533 1533 1534 1534 1535 1535 1535 1536 1536 1537 1537 1538 1538 1538 1539
1451 1465 1483 1490 1488 1484 1464 1469 1472 1459 1457 1461 1465 1471 1476 1481 1486 1492 1497 1501 1506 1510 1513 1515 1516 1519 1521 1523 1525 1526 1528 1530 1531 1532 1532 1533 1533 1534 1534 1534 1535 1535 1535 1536 1536 1536 1537 1537 1537
1453 1461 1484 1497 1493 1481 1466 1471 1462 1452 1453 1458 1462 1468 1473 1478 1482 1487 1493 1498 1503 1507 1510 1513 1514 1517 1519 1521 1523 1525 1527 1528 1529 1530 1531 1532 1532 1533 1533 1533 1534 1534 1534 1535 1535 1535 1535 1536 1536
1453 1457 1452 1466 1472 1481 1475 1465 1458 1450 1453 1456 1460 1464 1469 1474 1479 1485 1490 1495 1500 1504 1507 1510 1512 1515 1517 1520 1521 1523 1525 1526 1528 1529 1530 1531 1532 1532 1532 1532 1532 1533 1533 1533 1534 1534 1534 1534 1534
1444 1447 1454 1466 1483 1488 1481 1476 1470 1459 1457 1455 1458 1463 1468 1472 1478 1483 1488 1493 1497 1501 1505 1508 1510 1513 1515 1518 1520 1521 1523 1524 1526 1527 1528 1529 1530 1530 1531 1531 1531 1531 1532 1532 1532 1533 1533 1533 1533
1448 1451 1453 1457 1460 1478 1490 1483 1456 1454 1453 1455 1458 1462 1466 1471 1476 1481 1485 1490 1495 1499 1502 1505 1508 1511 1513 1516 1517 1519 1521 1522 1524 1525 1526 1527 1527 1528 1529 1529 1530 1530 1530 1530 1531 1531 1531 1531 1531
1440 1445 1450 1465 1468 1463 1471 1474 1448 1449 1451 1455 1459 1463 1467 1471 1475 1479 1484 1488 1493 1496 1500 1503 1505 1508 1511 1513 1515 1517 1518 1520 1521 1522 1523 1524 1525 1526 1527 1527 1527 1528 1528 1528 1529 1529 1529 1530 1530